W7KKE-3 Weather Reports


time (UTC)temp
F
wind
direction
speed
knots
gust
knots
rain 1hr
in
rain 24hr
in
rain mn
in
humidity
%
barometer
mb
20260509182650 64 324 9.6 15.6 0.00 0.00 0.00 74 1015.5
20260509182150 64 317 9.6 15.6 0.00 0.00 0.00 75 1015.5
20260509181650 64 320 9.6 15.6 0.00 0.00 0.00 74 1015.5
20260509180649 64 331 10.4 15.6 0.00 0.00 0.00 75 1015.6
20260509180149 64 334 9.6 13.9 0.00 0.00 0.00 75 1015.5
20260509175650 64 310 9.6 11.3 0.00 0.00 0.00 75 1015.5
20260509175149 64 305 7.0 11.3 0.00 0.00 0.00 76 1015.5
20260509174649 64 316 7.0 11.3 0.00 0.00 0.00 76 1015.4
20260509174150 64 296 5.2 9.6 0.00 0.00 0.00 77 1015.4
20260509173650 64 322 5.2 9.6 0.00 0.00 0.00 76 1015.6
20260509173151 64 334 7.0 8.7 0.00 0.00 0.00 76 1015.6
20260509172652 63 298 4.3 8.7 0.00 0.00 0.00 77 1015.8
20260509172149 63 277 5.2 7.8 0.00 0.00 0.00 76 1015.8
20260509171650 63 282 4.3 6.1 0.00 0.00 0.00 78 1015.6
20260509171152 63 292 2.6 6.1 0.00 0.00 0.00 78 1015.5
20260509170649 62 291 1.7 6.1 0.00 0.00 0.00 78 1015.6
20260509170149 62 292 2.6 5.2 0.00 0.00 0.00 79 1015.6
20260509165650 61 285 3.5 5.2 0.00 0.00 0.00 80 1015.6
20260509165149 61 289 2.6 5.2 0.00 0.00 0.00 80 1015.7
20260509164649 60 292 2.6 5.2 0.00 0.00 0.00 80 1015.7
20260509164153 60 299 3.5 5.2 0.00 0.00 0.00 81 1015.7
20260509163649 59 299 3.5 5.2 0.00 0.00 0.00 80 1015.8
20260509163149 59 305 4.3 5.2 0.00 0.00 0.00 81 1015.8
20260509162650 59 305 0.9 5.2 0.00 0.00 0.00 81 1015.7
20260509162150 59 305 3.5 4.3 0.00 0.00 0.00 82 1015.7
20260509161650 58 313 1.7 3.5 0.00 0.00 0.00 83 1015.7
20260509161150 58 296 2.6 2.6 0.00 0.00 0.00 84 1015.7
20260509160149 57 289 0.0 2.6 0.00 0.00 0.00 85 1015.7
20260509155650 57 277 0.9 0.9 0.00 0.00 0.00 85 1015.6
20260509155149 56 0 0.0 0.0 0.00 0.00 0.00 86 1015.6
20260509153649 55 296 0.0 0.9 0.00 0.00 0.00 86 1015.8
20260509153149 55 0 0.0 0.0 0.00 0.00 0.00 87 1015.8
20260509152650 55 0 0.0 1.7 0.00 0.00 0.00 87 1015.9
20260509152153 54 296 0.0 1.7 0.00 0.00 0.00 87 1016.0
20260509151650 54 306 0.0 1.7 0.00 0.00 0.00 87 1015.9
20260509150650 53 0 0.0 0.0 0.00 0.00 0.00 87 1015.9
20260509150150 53 0 0.0 0.0 0.00 0.00 0.00 87 1015.9
20260509145150 52 0 0.0 2.6 0.00 0.00 0.00 87 1016.0
20260509144650 52 67 0.0 2.6 0.00 0.00 0.00 87 1016.1
20260509144153 52 0 0.0 1.7 0.00 0.00 0.00 87 1016.0
20260509143650 51 334 0.0 1.7 0.00 0.00 0.00 87 1016.2
20260509143150 51 319 0.0 1.7 0.00 0.00 0.00 87 1016.5
20260509142651 51 113 0.0 3.5 0.00 0.00 0.00 86 1016.5
20260509142150 51 105 0.0 3.5 0.00 0.00 0.00 86 1016.3
20260509141650 51 105 0.9 3.5 0.00 0.00 0.00 87 1016.1
20260509141152 50 121 1.7 2.6 0.00 0.00 0.00 87 1016.2
20260509140651 50 0 0.0 0.0 0.00 0.00 0.00 86 1016.2
20260509140150 50 4 0.0 1.7 0.00 0.00 0.00 86 1016.3
20260509135651 50 127 0.0 1.7 0.00 0.00 0.00 86 1016.3
20260509135150 49 106 0.0 1.7 0.00 0.00 0.00 86 1016.3
20260509134650 49 81 0.0 2.6 0.00 0.00 0.00 86 1016.1
20260509134152 49 110 0.9 2.6 0.00 0.00 0.00 86 1016.0
20260509133650 49 105 0.9 2.6 0.00 0.00 0.00 86 1016.0
20260509133150 49 99 1.7 2.6 0.00 0.00 0.00 86 1016.1
20260509132651 49 105 1.7 2.6 0.00 0.00 0.00 86 1016.2
20260509132150 49 93 1.7 1.7 0.00 0.00 0.00 86 1016.2
20260509131650 49 92 0.9 4.3 0.00 0.00 0.00 86 1016.2
20260509131153 49 112 1.7 4.3 0.00 0.00 0.00 86 1016.2
20260509130650 49 100 1.7 4.3 0.00 0.00 0.00 86 1016.1
20260509130150 49 112 3.5 3.5 0.00 0.00 0.00 86 1016.2
20260509125651 49 105 2.6 3.5 0.00 0.00 0.00 86 1016.2
20260509125150 48 96 1.7 1.7 0.00 0.00 0.00 86 1016.3
20260509124650 49 86 0.9 3.5 0.00 0.00 0.00 86 1016.4
20260509124152 49 86 0.9 3.5 0.00 0.00 0.00 85 1016.4
20260509123650 48 99 0.9 3.5 0.00 0.00 0.00 85 1016.4
20260509123150 49 105 1.7 4.3 0.00 0.00 0.00 85 1016.4
20260509122651 48 105 2.6 4.3 0.00 0.00 0.00 86 1016.4
20260509122150 49 107 2.6 4.3 0.00 0.00 0.00 85 1016.5
20260509121651 48 109 1.7 4.3 0.00 0.00 0.00 85 1016.6
20260509121152 48 106 2.6 4.3 0.00 0.00 0.00 85 1016.6
20260509120650 49 99 2.6 4.3 0.00 0.00 0.00 85 1016.7
20260509120150 49 103 3.5 4.3 0.00 0.00 0.00 85 1016.7
20260509115651 49 114 3.5 4.3 0.00 0.00 0.00 85 1016.7
20260509115150 49 110 3.5 3.5 0.00 0.00 0.00 85 1016.7
20260509114651 49 99 3.5 3.5 0.00 0.00 0.00 85 1016.8
20260509113650 49 103 0.9 3.5 0.00 0.00 0.00 85 1017.1
20260509113150 49 100 1.7 3.5 0.00 0.00 0.00 85 1017.1
20260509112651 50 109 2.6 3.5 0.00 0.00 0.00 85 1017.1
20260509112150 49 102 1.7 2.6 0.00 0.00 0.00 85 1017.0
20260509111650 50 91 1.7 2.6 0.00 0.00 0.00 85 1016.9
20260509111152 50 100 1.7 2.6 0.00 0.00 0.00 85 1016.9
20260509110651 50 60 1.7 4.3 0.00 0.00 0.00 85 1016.9
20260509110150 49 91 1.7 4.3 0.00 0.00 0.00 85 1016.9
20260509105150 49 113 1.7 4.3 0.00 0.00 0.00 85 1017.0
20260509104650 49 102 2.6 4.3 0.00 0.00 0.00 85 1016.9
20260509104152 49 98 3.5 4.3 0.00 0.00 0.00 85 1016.9
20260509103650 49 102 2.6 3.5 0.00 0.00 0.00 84 1016.9
20260509103150 49 105 0.9 3.5 0.00 0.00 0.00 84 1017.1
20260509102651 49 112 2.6 3.5 0.00 0.00 0.00 84 1017.1
20260509102150 49 96 2.6 5.2 0.00 0.00 0.00 84 1017.1
20260509101650 49 109 2.6 5.2 0.00 0.00 0.00 84 1017.2
20260509101152 50 95 3.5 5.2 0.00 0.00 0.00 84 1017.2
20260509100650 50 103 3.5 5.2 0.00 0.00 0.00 84 1017.3
20260509100150 50 113 3.5 5.2 0.00 0.00 0.00 84 1017.4
20260509095651 50 113 3.5 4.3 0.00 0.00 0.00 84 1017.4
20260509095150 50 103 3.5 4.3 0.00 0.00 0.00 84 1017.5
20260509094650 50 102 3.5 4.3 0.00 0.00 0.00 84 1017.5
20260509094152 50 98 2.6 4.3 0.00 0.00 0.00 84 1017.5
20260509093650 50 99 3.5 4.3 0.00 0.00 0.00 84 1017.5
20260509093150 50 100 3.5 4.3 0.00 0.00 0.00 84 1017.5
20260509092651 50 99 3.5 4.3 0.00 0.00 0.00 83 1017.5
20260509092152 50 106 3.5 4.3 0.00 0.00 0.00 83 1017.5
20260509091650 50 102 2.6 4.3 0.00 0.00 0.00 83 1017.6
20260509091152 50 110 2.6 4.3 0.00 0.00 0.00 83 1017.6
20260509090650 50 159 2.6 4.3 0.00 0.00 0.00 83 1017.6
20260509090150 50 110 2.6 4.3 0.00 0.00 0.00 83 1017.6
20260509085651 50 112 1.7 4.3 0.00 0.00 0.00 83 1017.5
20260509085150 50 134 1.7 4.3 0.00 0.00 0.00 83 1017.6
20260509084650 50 105 1.7 4.3 0.00 0.00 0.00 83 1017.7
20260509084153 50 113 2.6 4.3 0.00 0.00 0.00 83 1017.7
20260509083650 50 95 1.7 3.5 0.00 0.00 0.00 83 1017.8
20260509083150 50 103 2.6 3.5 0.00 0.00 0.00 83 1017.8
20260509082651 50 106 1.7 3.5 0.00 0.00 0.00 82 1018.0
20260509082152 50 110 2.6 3.5 0.00 0.00 0.00 82 1018.0
20260509081650 50 106 1.7 3.5 0.00 0.00 0.00 82 1018.0
20260509081152 50 99 1.7 3.5 0.00 0.00 0.00 82 1018.0
20260509080650 50 123 0.9 3.5 0.00 0.00 0.00 82 1018.0
20260509080150 50 177 1.7 3.5 0.00 0.00 0.00 82 1017.9
20260509075651 50 114 0.9 3.5 0.00 0.00 0.00 82 1018.0
20260509075150 50 93 0.0 3.5 0.00 0.00 0.00 82 1018.0
20260509074650 50 107 0.9 2.6 0.00 0.00 0.00 82 1017.9
20260509074152 50 114 0.9 2.6 0.00 0.00 0.00 82 1017.9
20260509073650 51 123 0.9 2.6 0.00 0.00 0.00 82 1018.0
20260509073150 51 98 0.9 2.6 0.00 0.00 0.00 82 1018.0
20260509072653 51 100 0.9 2.6 0.00 0.00 0.00 82 1018.0
20260509072150 51 100 0.9 2.6 0.00 0.00 0.00 82 1018.1
20260509071650 51 96 0.9 3.5 0.00 0.00 0.00 82 1018.2
20260509071152 51 116 1.7 3.5 0.00 0.00 0.00 82 1018.2
20260509070650 51 106 0.9 3.5 0.00 0.00 0.00 82 1018.2
20260509070150 51 107 0.9 5.2 0.00 0.00 0.00 82 1018.1
20260509065651 51 107 2.6 5.2 0.00 0.00 0.00 81 1018.3
20260509065150 51 168 0.9 5.2 0.00 0.00 0.00 81 1018.4
20260509064651 51 100 2.6 4.3 0.00 0.00 0.00 81 1018.4
20260509064152 51 103 1.7 4.3 0.00 0.00 0.00 81 1018.5
20260509063650 51 93 2.6 4.3 0.00 0.00 0.00 81 1018.5
20260509063150 51 96 2.6 4.3 0.00 0.00 0.00 81 1018.5
20260509062651 51 103 2.6 4.3 0.00 0.00 0.00 81 1018.5
20260509062150 52 100 2.6 4.3 0.00 0.00 0.00 81 1018.6
20260509061650 52 100 2.6 4.3 0.00 0.00 0.00 81 1018.6
20260509061152 52 109 2.6 4.3 0.00 0.00 0.00 81 1018.7
20260509060650 52 110 2.6 3.5 0.00 0.00 0.00 81 1018.7
20260509060150 52 116 2.6 4.3 0.00 0.00 0.00 80 1018.8
20260509055651 52 100 2.6 4.3 0.00 0.00 0.00 80 1018.7
20260509055150 52 105 2.6 4.3 0.00 0.00 0.00 80 1018.7
20260509054651 52 106 2.6 3.5 0.00 0.00 0.00 80 1018.7
20260509054152 52 107 2.6 5.2 0.00 0.00 0.00 80 1018.7
20260509053649 53 105 1.7 5.2 0.00 0.00 0.00 80 1018.7
20260509053150 53 105 2.6 5.2 0.00 0.00 0.00 80 1018.7
20260509052150 53 98 2.6 4.3 0.00 0.00 0.00 79 1018.9
20260509051650 53 106 3.5 3.5 0.00 0.00 0.00 79 1018.8
20260509051152 53 116 3.5 4.3 0.00 0.00 0.00 79 1018.8
20260509050650 53 100 2.6 4.3 0.00 0.00 0.00 79 1018.8
20260509050150 54 119 2.6 4.3 0.00 0.00 0.00 79 1018.8
20260509045150 54 114 1.7 4.3 0.00 0.00 0.00 78 1018.8
20260509044650 54 114 2.6 4.3 0.00 0.00 0.00 78 1018.8
20260509044152 54 102 1.7 4.3 0.00 0.00 0.00 78 1018.8
20260509043650 54 106 3.5 3.5 0.00 0.00 0.00 78 1018.7
20260509043150 54 106 3.5 3.5 0.00 0.00 0.00 78 1018.7
20260509042651 54 309 0.9 2.6 0.00 0.00 0.00 77 1018.6
20260509042150 55 319 0.0 2.6 0.00 0.00 0.00 77 1018.6
20260509041650 55 327 0.0 2.6 0.00 0.00 0.00 77 1018.6
20260509041152 55 343 0.0 3.5 0.00 0.00 0.00 77 1018.6
20260509040649 55 91 0.9 3.5 0.00 0.00 0.00 77 1018.5
20260509040150 56 357 0.0 3.5 0.00 0.00 0.00 76 1018.6
20260509035150 56 357 0.0 5.2 0.00 0.00 0.00 76 1018.5
20260509034650 56 340 0.9 5.2 0.00 0.00 0.00 76 1018.5
20260509033649 57 317 1.7 5.2 0.00 0.00 0.00 76 1018.4
20260509033149 57 326 2.6 5.2 0.00 0.00 0.00 75 1018.4
20260509032654 57 340 2.6 5.2 0.00 0.00 0.00 75 1018.4
20260509032150 58 336 3.5 5.2 0.00 0.00 0.00 75 1018.4
20260509031649 58 309 3.5 5.2 0.00 0.00 0.00 75 1018.4
20260509031152 58 327 1.7 5.2 0.00 0.00 0.00 75 1018.4
20260509030650 58 334 3.5 7.0 0.00 0.00 0.00 74 1018.4
20260509030150 58 319 4.3 7.0 0.00 0.00 0.00 74 1018.4
20260509025651 58 334 2.6 7.0 0.00 0.00 0.00 74 1018.4
20260509025149 58 330 4.3 6.1 0.00 0.00 0.00 74 1018.4
20260509024650 59 337 3.5 5.2 0.00 0.00 0.00 74 1018.5
20260509024152 59 310 2.6 6.1 0.00 0.00 0.00 74 1018.6
20260509023650 59 316 3.5 6.1 0.00 0.00 0.00 74 1018.6
20260509023150 59 299 3.5 6.1 0.00 0.00 0.00 74 1018.6
20260509022651 59 322 4.3 7.0 0.00 0.00 0.00 73 1018.6
20260509022150 59 309 4.3 7.0 0.00 0.00 0.00 73 1018.7
20260509021650 59 301 3.5 7.0 0.00 0.00 0.00 73 1018.7
20260509021150 59 284 3.5 7.0 0.00 0.00 0.00 73 1018.7
20260509020650 59 294 5.2 6.1 0.00 0.00 0.00 73 1018.7
20260509020150 60 292 3.5 6.1 0.00 0.00 0.00 73 1018.7
20260509015150 60 295 2.6 7.0 0.00 0.00 0.00 72 1018.6
20260509014649 60 310 3.5 7.0 0.00 0.00 0.00 73 1018.7
20260509013649 60 299 4.3 6.1 0.00 0.00 0.00 72 1018.6
20260509013150 60 303 3.5 6.1 0.00 0.00 0.00 72 1018.7
20260509012651 60 291 4.3 6.1 0.00 0.00 0.00 72 1018.6
20260509012149 60 291 5.2 6.1 0.00 0.00 0.00 72 1018.7
20260509011649 60 320 3.5 6.1 0.00 0.00 0.00 72 1018.7
20260509011150 60 273 3.5 6.1 0.00 0.00 0.00 72 1018.8
20260509010650 60 292 3.5 6.1 0.00 0.00 0.00 72 1018.8
20260509010150 60 277 2.6 5.2 0.00 0.00 0.00 71 1018.8
20260509005649 60 296 3.5 5.2 0.00 0.00 0.00 71 1018.9
20260509005149 60 292 4.3 5.2 0.00 0.00 0.00 71 1018.8
20260509004650 60 324 2.6 5.2 0.00 0.00 0.00 71 1018.9
20260509004150 60 302 1.7 5.2 0.00 0.00 0.00 71 1019.0
20260509003652 60 289 2.6 7.0 0.00 0.00 0.00 70 1019.0
20260509003150 60 294 3.5 7.0 0.00 0.00 0.00 70 1019.1
20260509002649 60 282 3.5 7.0 0.00 0.00 0.00 70 1019.1
20260509002150 60 298 4.3 6.1 0.00 0.00 0.00 70 1019.0
20260509001650 61 299 4.3 7.0 0.00 0.00 0.00 70 1019.0
20260509001152 61 291 2.6 7.0 0.00 0.00 0.00 70 1019.1
20260509000650 61 299 4.3 7.0 0.00 0.00 0.00 70 1019.1
20260509000150 60 236 2.6 5.2 0.00 0.00 0.00 70 1019.2
20260508235150 61 288 2.6 7.0 0.00 0.00 0.00 69 1019.2
20260508234650 61 282 3.5 7.0 0.00 0.00 0.00 69 1019.2
20260508234152 61 305 4.3 6.1 0.00 0.00 0.00 69 1019.2
20260508233649 61 302 3.5 6.1 0.00 0.00 0.00 69 1019.2
20260508233150 62 292 3.5 6.1 0.00 0.00 0.00 69 1019.2
20260508232651 62 301 5.2 6.1 0.00 0.00 0.00 68 1019.3
20260508232150 62 263 4.3 6.1 0.00 0.00 0.00 68 1019.3
20260508231650 62 242 3.5 6.1 0.00 0.00 0.00 68 1019.3
20260508231152 62 264 3.5 6.1 0.00 0.00 0.00 69 1019.3
20260508230650 62 274 2.6 6.1 0.00 0.00 0.00 69 1019.4
20260508230150 62 264 3.5 6.1 0.00 0.00 0.00 69 1019.4
20260508225651 62 274 3.5 7.0 0.00 0.00 0.00 69 1019.4
20260508225150 62 267 4.3 7.0 0.00 0.00 0.00 69 1019.4
20260508224650 62 270 3.5 7.0 0.00 0.00 0.00 68 1019.3
20260508224152 62 235 3.5 7.0 0.00 0.00 0.00 67 1019.3
20260508223650 62 268 4.3 6.1 0.00 0.00 0.00 67 1019.2
20260508223150 62 296 4.3 7.8 0.00 0.00 0.00 67 1019.2
20260508222651 62 254 2.6 7.8 0.00 0.00 0.00 68 1019.3
20260508222150 62 261 4.3 7.8 0.00 0.00 0.00 67 1019.3
20260508221650 62 252 3.5 7.8 0.00 0.00 0.00 67 1019.3
20260508221152 62 254 3.5 7.8 0.00 0.00 0.00 67 1019.2
20260508220649 62 273 3.5 7.8 0.00 0.00 0.00 67 1019.3
20260508220151 62 210 3.5 7.8 0.00 0.00 0.00 68 1019.3
20260508215651 62 250 5.2 7.8 0.00 0.00 0.00 68 1019.3
20260508215150 62 236 4.3 7.8 0.00 0.00 0.00 68 1019.2
20260508214650 62 239 4.3 7.8 0.00 0.00 0.00 68 1019.2
20260508214152 62 249 6.1 8.7 0.00 0.00 0.00 67 1019.2
20260508213650 62 238 5.2 8.7 0.00 0.00 0.00 68 1019.2
20260508213150 62 246 3.5 8.7 0.00 0.00 0.00 67 1019.2
20260508212651 62 271 6.1 7.8 0.00 0.00 0.00 67 1019.2
20260508212150 62 242 3.5 7.8 0.00 0.00 0.00 68 1019.2
20260508211650 62 229 4.3 9.6 0.00 0.00 0.00 67 1019.2
20260508211152 62 280 5.2 9.6 0.00 0.00 0.00 67 1019.2
20260508210150 62 266 4.3 12.2 0.00 0.00 0.00 68 1019.1
20260508205651 62 252 5.2 12.2 0.00 0.00 0.00 66 1019.1
20260508205150 62 243 3.5 12.2 0.00 0.00 0.00 68 1019.0
20260508204650 62 243 7.8 10.4 0.00 0.00 0.00 68 1019.0
20260508204152 62 245 5.2 10.4 0.00 0.00 0.00 69 1019.0
20260508203651 62 254 4.3 10.4 0.00 0.00 0.00 68 1019.0
20260508203150 62 235 7.0 9.6 0.00 0.00 0.00 67 1019.0
20260508202652 63 242 7.0 11.3 0.00 0.00 0.00 67 1018.8
20260508202151 63 260 6.1 11.3 0.00 0.00 0.00 68 1018.9
20260508201650 63 245 6.1 11.3 0.00 0.00 0.00 68 1018.9
20260508201152 62 266 7.0 10.4 0.00 0.00 0.00 69 1018.8
20260508200650 62 180 0.9 10.4 0.00 0.00 0.00 69 1018.7
20260508200150 62 201 2.6 10.4 0.00 0.00 0.00 70 1018.6
20260508195651 61 233 4.3 8.7 0.00 0.00 0.00 70 1018.7
20260508195150 61 277 4.3 10.4 0.00 0.00 0.00 70 1018.8
20260508194649 61 242 1.7 10.4 0.00 0.00 0.00 71 1018.8
20260508194152 60 215 4.3 10.4 0.00 0.00 0.00 71 1018.7
20260508193650 61 259 5.2 8.7 0.00 0.00 0.00 71 1018.7
20260508193150 60 242 3.5 8.7 0.00 0.00 0.00 73 1018.6
20260508192150 59 233 5.2 8.7 0.00 0.00 0.00 71 1018.6
20260508191650 59 200 2.6 7.0 0.00 0.00 0.00 71 1018.6
20260508191152 59 217 2.6 7.0 0.00 0.00 0.00 71 1018.6
20260508190650 59 158 3.5 6.1 0.00 0.00 0.00 71 1018.6
20260508190150 59 205 1.7 8.7 0.00 0.00 0.00 72 1018.7
20260508185651 58 189 1.7 8.7 0.00 0.00 0.00 72 1018.6
20260508185150 58 208 2.6 8.7 0.00 0.00 0.00 71 1018.7
20260508184650 58 155 5.2 7.8 0.00 0.00 0.00 71 1018.7
20260508184152 58 233 0.9 9.6 0.00 0.00 0.00 72 1018.5
20260508183650 58 232 4.3 9.6 0.00 0.00 0.00 71 1018.6
20260508183150 58 205 3.5 9.6 0.00 0.00 0.00 71 1018.6